Simultaneous Nadir Overpasses (SNOs) Predictions

Prediction of SNOs between GOES-17 and AQUA Satellite Orbit:

Table of predicted SNOs for the next 14.0 days since TLE Epoch: 4/18/2025
Index Date Time (GOES-17) GOES-17 Lat,Lon AQUA Lat,Lon Distance(km) Time Diff (sec)
1 04/18/2025 21:31:31 0.01,-104.39 0.24,-103.30 123.14 80
2 04/19/2025 09:50:44 -0.01,-104.37 0.77,-107.95 407.80 80
3 04/21/2025 09:28:04 -0.01,-104.36 -0.31,-103.06 148.71 80
4 04/21/2025 21:47:26 0.00,-104.37 -0.72,-107.73 382.31 80
5 04/23/2025 21:30:04 0.00,-104.37 0.31,-102.83 175.20 80
6 04/24/2025 09:49:18 -0.00,-104.36 0.66,-107.48 354.96 80
7 04/26/2025 09:26:35 -0.00,-104.35 -0.38,-102.57 202.69 80
8 04/26/2025 21:45:57 0.00,-104.36 -0.62,-107.25 328.56 80
9 04/28/2025 21:28:33 0.00,-104.35 0.43,-102.33 229.51 80
10 04/29/2025 09:47:46 -0.00,-104.34 0.57,-106.98 300.08 80
11 05/01/2025 09:25:01 -0.00,-104.33 -0.49,-102.06 257.90 80
12 05/01/2025 21:44:21 0.00,-104.33 -0.53,-106.73 273.70 80
